Time,TemperatureF,DewpointF,PressureIn,WindDirection,WindDirectionDegrees,WindSpeedMPH,WindSpeedGustMPH,Humidity,HourlyPrecipIn,Conditions,Clouds,dailyrainin,SoftwareType,DateUTC
2013-04-23 00:02:00,55.0,45.0,30.00,SE,142,0.0,2.0,68,0.00,,,0.00,,2013-04-23 05:02:00,
2013-04-23 00:12:00,55.0,45.0,30.00,SE,142,0.0,2.0,68,0.00,,,0.00,,2013-04-23 05:12:00,
2013-04-23 00:22:00,55.0,45.0,30.00,SE,130,0.0,4.0,69,0.00,,,0.00,,2013-04-23 05:22:00,
2013-04-23 00:32:00,56.0,46.0,30.00,SSE,153,0.0,3.0,68,0.00,,,0.00,,2013-04-23 05:32:00,
2013-04-23 00:42:00,56.0,46.0,30.00,SSE,153,0.0,3.0,68,0.00,,,0.00,,2013-04-23 05:42:00,
2013-04-23 00:52:00,56.0,45.0,29.99,South,171,1.0,7.0,66,0.00,,,0.00,,2013-04-23 05:52:00,
2013-04-23 01:01:00,57.0,46.0,29.99,SSE,159,0.0,5.0,67,0.00,,,0.00,,2013-04-23 06:01:00,
2013-04-23 01:12:00,57.0,46.0,29.99,SSE,159,0.0,5.0,67,0.00,,,0.00,,2013-04-23 06:12:00,
2013-04-23 01:21:00,57.0,46.0,29.99,SW,216,1.0,5.0,66,0.00,,,0.00,,2013-04-23 06:21:00,
2013-04-23 01:33:00,55.0,46.0,30.01,ESE,122,2.0,7.0,71,0.00,,,0.00,,2013-04-23 06:33:00,
2013-04-23 01:42:00,55.0,46.0,30.01,ESE,122,2.0,7.0,71,0.00,,,0.00,,2013-04-23 06:42:00,
2013-04-23 01:52:00,54.0,46.0,30.00,SE,144,0.0,4.0,75,0.00,,,0.00,,2013-04-23 06:52:00,
2013-04-23 02:02:00,54.0,47.0,29.99,SSE,168,0.0,2.0,78,0.00,,,0.00,,2013-04-23 07:02:00,
2013-04-23 02:11:00,54.0,47.0,29.99,SSE,168,0.0,2.0,78,0.00,,,0.00,,2013-04-23 07:11:00,
2013-04-23 02:21:00,54.0,48.0,29.98,SSW,213,0.0,2.0,79,0.00,,,0.00,,2013-04-23 07:21:00,
2013-04-23 02:32:00,54.0,48.0,29.96,North,350,0.0,3.0,81,0.00,,,0.00,,2013-04-23 07:32:00,
2013-04-23 02:42:00,54.0,48.0,29.96,North,350,0.0,3.0,81,0.00,,,0.00,,2013-04-23 07:42:00,
2013-04-23 02:52:00,54.0,49.0,29.96,North,350,0.0,0.0,82,0.00,,,0.00,,2013-04-23 07:52:00,
2013-04-23 03:02:00,53.0,48.0,29.95,South,173,1.0,5.0,84,0.00,,,0.00,,2013-04-23 08:02:00,
2013-04-23 03:11:00,53.0,48.0,29.95,South,173,1.0,5.0,84,0.00,,,0.00,,2013-04-23 08:11:00,
2013-04-23 03:21:00,54.0,49.0,29.96,South,173,0.0,2.0,82,0.00,,,0.00,,2013-04-23 08:21:00,
2013-04-23 03:31:00,54.0,49.0,29.96,SSE,163,0.0,2.0,83,0.00,,,0.00,,2013-04-23 08:31:00,
2013-04-23 03:42:00,54.0,49.0,29.96,SSE,163,0.0,2.0,83,0.00,,,0.00,,2013-04-23 08:42:00,
2013-04-23 03:52:00,54.0,50.0,29.96,SSE,165,0.0,3.0,85,0.02,,,0.02,,2013-04-23 08:52:00,
2013-04-23 04:01:00,53.0,50.0,29.95,SSW,195,0.0,1.0,88,0.02,,,0.02,,2013-04-23 09:01:00,
2013-04-23 04:11:00,53.0,50.0,29.95,SSW,195,0.0,1.0,88,0.02,,,0.02,,2013-04-23 09:11:00,
2013-04-23 04:21:00,52.0,49.0,29.95,SSW,196,0.0,1.0,89,0.02,,,0.02,,2013-04-23 09:21:00,
2013-04-23 04:33:00,52.0,49.0,29.92,SSW,195,0.0,0.0,91,0.02,,,0.02,,2013-04-23 09:33:00,
2013-04-23 04:43:00,52.0,49.0,29.92,SSW,195,0.0,0.0,91,0.02,,,0.02,,2013-04-23 09:43:00,
2013-04-23 04:53:00,52.0,50.0,29.93,SSW,195,0.0,1.0,92,0.00,,,0.02,,2013-04-23 09:53:00,
2013-04-23 05:02:00,51.0,49.0,29.92,SSW,195,0.0,0.0,92,0.00,,,0.02,,2013-04-23 10:02:00,
2013-04-23 05:13:00,51.0,49.0,29.92,SSW,195,0.0,0.0,92,0.00,,,0.02,,2013-04-23 10:13:00,
2013-04-23 05:22:00,51.0,49.0,29.91,SSW,195,0.0,1.0,93,0.00,,,0.02,,2013-04-23 10:22:00,
2013-04-23 05:33:00,50.0,48.0,29.90,SSW,195,0.0,0.0,93,0.00,,,0.02,,2013-04-23 10:33:00,
2013-04-23 05:42:00,50.0,48.0,29.90,SSW,195,0.0,0.0,93,0.00,,,0.02,,2013-04-23 10:42:00,
2013-04-23 05:52:00,50.0,48.0,29.90,SSW,196,0.0,0.0,93,0.00,,,0.02,,2013-04-23 10:52:00,
2013-04-23 06:02:00,50.0,48.0,29.92,SSW,196,0.0,0.0,94,0.01,,,0.03,,2013-04-23 11:02:00,
2013-04-23 06:12:00,50.0,48.0,29.92,SSW,196,0.0,0.0,94,0.01,,,0.03,,2013-04-23 11:12:00,
2013-04-23 06:21:00,49.0,47.0,29.92,SSW,196,0.0,0.0,94,0.01,,,0.03,,2013-04-23 11:21:00,
2013-04-23 06:32:00,49.0,47.0,29.92,SSW,192,0.0,4.0,94,0.01,,,0.03,,2013-04-23 11:32:00,
2013-04-23 06:42:00,49.0,47.0,29.92,SSW,192,0.0,4.0,94,0.01,,,0.03,,2013-04-23 11:42:00,
2013-04-23 06:53:00,50.0,47.0,29.91,South,182,0.0,1.0,91,0.01,,,0.03,,2013-04-23 11:53:00,
2013-04-23 07:02:00,51.0,48.0,29.90,SE,138,0.0,2.0,89,0.00,,,0.03,,2013-04-23 12:02:00,
2013-04-23 07:12:00,51.0,48.0,29.90,SE,138,0.0,2.0,89,0.00,,,0.03,,2013-04-23 12:12:00,
2013-04-23 07:22:00,51.0,48.0,29.90,SE,138,0.0,2.0,89,0.00,,,0.03,,2013-04-23 12:22:00,
2013-04-23 07:32:00,51.0,48.0,29.90,SE,138,0.0,2.0,89,0.00,,,0.03,,2013-04-23 12:32:00,
2013-04-23 07:41:00,51.0,48.0,29.90,SE,138,0.0,2.0,89,0.00,,,0.03,,2013-04-23 12:41:00,
2013-04-23 07:52:00,51.0,47.0,29.91,NNW,336,0.0,0.0,87,0.00,,,0.03,,2013-04-23 12:52:00,
2013-04-23 08:01:00,51.0,48.0,29.91,NNW,336,0.0,0.0,89,0.00,,,0.03,,2013-04-23 13:01:00,
2013-04-23 08:11:00,51.0,48.0,29.91,NNW,336,0.0,0.0,89,0.00,,,0.03,,2013-04-23 13:11:00,
2013-04-23 08:21:00,52.0,49.0,29.92,NNW,336,0.0,0.0,88,0.00,,,0.03,,2013-04-23 13:21:00,
2013-04-23 08:32:00,52.0,48.0,29.91,WNW,299,0.0,3.0,87,0.00,,,0.03,,2013-04-23 13:32:00,
2013-04-23 08:41:00,52.0,48.0,29.91,WNW,299,0.0,3.0,87,0.00,,,0.03,,2013-04-23 13:41:00,
2013-04-23 08:52:00,53.0,49.0,29.91,SSE,158,0.0,1.0,86,0.00,,,0.03,,2013-04-23 13:52:00,
2013-04-23 09:01:00,53.0,49.0,29.92,SSE,156,0.0,1.0,86,0.00,,,0.03,,2013-04-23 14:01:00,
2013-04-23 09:11:00,53.0,49.0,29.92,SSE,156,0.0,1.0,86,0.00,,,0.03,,2013-04-23 14:11:00,
2013-04-23 09:22:00,54.0,50.0,29.93,South,183,0.0,1.0,85,0.00,,,0.03,,2013-04-23 14:22:00,
2013-04-23 09:32:00,55.0,50.0,29.93,WSW,252,1.0,4.0,83,0.00,,,0.03,,2013-04-23 14:32:00,
2013-04-23 09:42:00,55.0,50.0,29.93,WSW,252,1.0,4.0,83,0.00,,,0.03,,2013-04-23 14:42:00,
2013-04-23 09:52:00,54.0,50.0,29.92,NW,312,1.0,3.0,85,0.00,,,0.03,,2013-04-23 14:52:00,
2013-04-23 10:01:00,54.0,50.0,29.92,NW,312,1.0,3.0,85,0.00,,,0.03,,2013-04-23 15:01:00,
2013-04-23 10:12:00,54.0,50.0,29.91,West,273,2.0,6.0,85,0.00,,,0.03,,2013-04-23 15:12:00,
2013-04-23 10:21:00,54.0,50.0,29.91,NW,319,3.0,8.0,86,0.00,,,0.03,,2013-04-23 15:21:00,
2013-04-23 10:32:00,53.0,49.0,29.91,NNW,327,2.0,8.0,86,0.00,,,0.03,,2013-04-23 15:32:00,
2013-04-23 10:42:00,53.0,49.0,29.91,NNW,327,2.0,8.0,86,0.00,,,0.03,,2013-04-23 15:42:00,
2013-04-23 10:53:00,53.0,50.0,29.92,North,360,2.0,7.0,88,0.00,,,0.03,,2013-04-23 15:53:00,
2013-04-23 11:03:00,52.0,49.0,29.93,NNW,333,1.0,9.0,90,0.00,,,0.03,,2013-04-23 16:03:00,
2013-04-23 11:12:00,52.0,49.0,29.93,NNW,333,1.0,9.0,90,0.00,,,0.03,,2013-04-23 16:12:00,
2013-04-23 11:23:00,51.0,48.0,29.92,WNW,296,3.0,7.0,91,0.01,,,0.04,,2013-04-23 16:23:00,
2013-04-23 11:34:00,50.0,48.0,29.92,NNW,333,1.0,9.0,93,0.01,,,0.04,,2013-04-23 16:34:00,
2013-04-23 11:43:00,50.0,48.0,29.92,NNW,333,1.0,9.0,93,0.01,,,0.04,,2013-04-23 16:43:00,
2013-04-23 11:53:00,50.0,48.0,29.92,NNE,14,0.0,6.0,92,0.02,,,0.05,,2013-04-23 16:53:00,
2013-04-23 12:02:00,49.0,47.0,29.92,North,355,1.0,8.0,92,0.03,,,0.06,,2013-04-23 17:02:00,
2013-04-23 12:11:00,49.0,47.0,29.92,North,355,1.0,8.0,92,0.03,,,0.06,,2013-04-23 17:11:00,
2013-04-23 12:22:00,48.0,46.0,29.92,WNW,298,2.0,7.0,92,0.02,,,0.06,,2013-04-23 17:22:00,
2013-04-23 12:32:00,47.0,45.0,29.92,NW,312,2.0,7.0,92,0.04,,,0.08,,2013-04-23 17:32:00,
2013-04-23 12:42:00,47.0,45.0,29.92,NW,312,2.0,7.0,92,0.04,,,0.08,,2013-04-23 17:42:00,
2013-04-23 12:53:00,46.0,44.0,29.93,West,274,1.0,4.0,93,0.04,,,0.09,,2013-04-23 17:53:00,
2013-04-23 13:02:00,46.0,44.0,29.93,NW,322,2.0,6.0,94,0.05,,,0.11,,2013-04-23 18:02:00,
2013-04-23 13:12:00,46.0,44.0,29.93,NW,322,2.0,6.0,94,0.05,,,0.11,,2013-04-23 18:12:00,
2013-04-23 13:22:00,45.0,43.0,29.95,WNW,286,2.0,9.0,94,0.05,,,0.11,,2013-04-23 18:22:00,
2013-04-23 13:32:00,45.0,43.0,29.94,NW,322,3.0,12.0,93,0.06,,,0.14,,2013-04-23 18:32:00,
2013-04-23 13:42:00,45.0,43.0,29.94,NW,322,3.0,12.0,93,0.06,,,0.14,,2013-04-23 18:42:00,
2013-04-23 13:52:00,44.0,42.0,29.93,NNW,347,5.0,12.0,94,0.05,,,0.15,,2013-04-23 18:52:00,
2013-04-23 14:02:00,44.0,42.0,29.92,NNW,342,4.0,10.0,93,0.06,,,0.17,,2013-04-23 19:02:00,
2013-04-23 14:11:00,44.0,42.0,29.92,NNW,342,4.0,10.0,93,0.06,,,0.17,,2013-04-23 19:11:00,
2013-04-23 14:21:00,44.0,42.0,29.91,NNW,336,5.0,11.0,92,0.06,,,0.17,,2013-04-23 19:21:00,
2013-04-23 14:32:00,44.0,42.0,29.91,NNW,336,5.0,11.0,92,0.06,,,0.17,,2013-04-23 19:32:00,
2013-04-23 14:42:00,44.0,42.0,29.91,NNW,336,5.0,11.0,92,0.06,,,0.17,,2013-04-23 19:42:00,
2013-04-23 14:52:00,43.0,41.0,29.90,NW,324,6.0,12.0,92,0.04,,,0.18,,2013-04-23 19:52:00,
2013-04-23 15:01:00,43.0,41.0,29.89,NNE,17,5.0,10.0,93,0.03,,,0.18,,2013-04-23 20:01:00,
2013-04-23 15:11:00,43.0,41.0,29.89,NNE,17,5.0,10.0,93,0.03,,,0.18,,2013-04-23 20:11:00,
2013-04-23 15:22:00,43.0,41.0,29.89,NNW,344,4.0,9.0,92,0.02,,,0.19,,2013-04-23 20:22:00,
2013-04-23 15:32:00,43.0,41.0,29.89,NNW,340,5.0,9.0,93,0.02,,,0.19,,2013-04-23 20:32:00,
2013-04-23 15:42:00,43.0,41.0,29.89,NNW,340,5.0,9.0,93,0.02,,,0.19,,2013-04-23 20:42:00,
2013-04-23 15:52:00,43.0,41.0,29.89,North,360,3.0,8.0,93,0.01,,,0.19,,2013-04-23 20:52:00,
2013-04-23 16:02:00,43.0,41.0,29.88,NNW,329,3.0,7.0,93,0.01,,,0.19,,2013-04-23 21:02:00,
2013-04-23 16:12:00,43.0,41.0,29.88,NNW,329,3.0,7.0,93,0.01,,,0.19,,2013-04-23 21:12:00,
2013-04-23 16:21:00,43.0,41.0,29.87,NNW,331,6.0,10.0,94,0.01,,,0.20,,2013-04-23 21:21:00,
2013-04-23 16:33:00,43.0,41.0,29.88,NW,315,3.0,8.0,94,0.03,,,0.22,,2013-04-23 21:33:00,
2013-04-23 16:43:00,43.0,41.0,29.88,NW,315,3.0,8.0,94,0.03,,,0.22,,2013-04-23 21:43:00,
2013-04-23 16:52:00,43.0,41.0,29.89,NNW,343,3.0,9.0,94,0.06,,,0.25,,2013-04-23 21:52:00,
2013-04-23 17:03:00,42.0,40.0,29.90,WNW,296,3.0,8.0,94,0.08,,,0.27,,2013-04-23 22:03:00,
2013-04-23 17:12:00,42.0,40.0,29.90,WNW,296,3.0,8.0,94,0.08,,,0.27,,2013-04-23 22:12:00,
2013-04-23 17:22:00,42.0,40.0,29.90,NW,321,6.0,13.0,94,0.11,,,0.31,,2013-04-23 22:22:00,
2013-04-23 17:33:00,42.0,40.0,29.90,North,355,4.0,11.0,93,0.12,,,0.34,,2013-04-23 22:33:00,
2013-04-23 17:42:00,42.0,40.0,29.90,North,355,4.0,11.0,93,0.12,,,0.34,,2013-04-23 22:42:00,
2013-04-23 17:52:00,41.0,39.0,29.90,North,360,5.0,11.0,94,0.11,,,0.36,,2013-04-23 22:52:00,
2013-04-23 18:03:00,41.0,39.0,29.91,NE,34,5.0,14.0,93,0.09,,,0.37,,2013-04-23 23:03:00,
2013-04-23 18:12:00,41.0,39.0,29.91,NE,34,5.0,14.0,93,0.09,,,0.37,,2013-04-23 23:12:00,
2013-04-23 18:22:00,41.0,39.0,29.91,NW,323,4.0,11.0,94,0.06,,,0.38,,2013-04-23 23:22:00,
2013-04-23 18:32:00,41.0,39.0,29.91,NNW,333,4.0,14.0,94,0.06,,,0.40,,2013-04-23 23:32:00,
2013-04-23 18:42:00,41.0,39.0,29.91,NNW,333,4.0,14.0,94,0.06,,,0.40,,2013-04-23 23:42:00,
2013-04-23 18:52:00,41.0,39.0,29.92,NW,319,5.0,11.0,94,0.05,,,0.41,,2013-04-23 23:52:00,
2013-04-23 19:01:00,41.0,39.0,29.91,NW,322,7.0,11.0,94,0.07,,,0.44,,2013-04-24 00:01:00,
2013-04-23 19:11:00,41.0,39.0,29.91,NW,322,7.0,11.0,94,0.07,,,0.44,,2013-04-24 00:11:00,
2013-04-23 19:22:00,40.0,38.0,29.91,NW,315,8.0,14.0,93,0.10,,,0.48,,2013-04-24 00:22:00,
2013-04-23 19:32:00,40.0,38.0,29.91,NNW,336,5.0,15.0,93,0.11,,,0.51,,2013-04-24 00:32:00,
2013-04-23 19:41:00,40.0,38.0,29.91,NNW,336,5.0,15.0,93,0.11,,,0.51,,2013-04-24 00:41:00,
2013-04-23 19:52:00,39.0,37.0,29.91,North,350,7.0,14.0,93,0.16,,,0.57,,2013-04-24 00:52:00,
2013-04-23 20:01:00,39.0,37.0,29.91,NNW,346,6.0,11.0,93,0.17,,,0.62,,2013-04-24 01:01:00,
2013-04-23 20:11:00,39.0,37.0,29.91,NNW,346,6.0,11.0,93,0.17,,,0.62,,2013-04-24 01:11:00,
2013-04-23 20:21:00,39.0,37.0,29.92,NNW,336,5.0,11.0,93,0.18,,,0.66,,2013-04-24 01:21:00,
2013-04-23 20:32:00,39.0,37.0,29.91,North,5,5.0,9.0,93,0.17,,,0.68,,2013-04-24 01:32:00,
2013-04-23 20:42:00,39.0,37.0,29.91,North,5,5.0,9.0,93,0.17,,,0.68,,2013-04-24 01:42:00,
2013-04-23 20:52:00,39.0,37.0,29.91,North,355,4.0,11.0,94,0.10,,,0.68,,2013-04-24 01:52:00,
2013-04-23 21:02:00,39.0,37.0,29.92,NNE,24,7.0,12.0,93,0.07,,,0.69,,2013-04-24 02:02:00,
2013-04-23 21:17:00,39.0,37.0,29.92,NNE,24,7.0,12.0,93,0.07,,,0.69,,2013-04-24 02:17:00,
2013-04-23 21:29:00,39.0,37.0,29.93,NNE,18,5.0,11.0,93,0.03,,,0.69,,2013-04-24 02:29:00,
2013-04-23 21:38:00,39.0,37.0,29.93,NW,311,5.0,9.0,93,0.02,,,0.70,,2013-04-24 02:38:00,
2013-04-23 21:47:00,39.0,37.0,29.93,NW,311,5.0,9.0,93,0.02,,,0.70,,2013-04-24 02:47:00,
2013-04-23 21:55:00,38.0,36.0,29.94,West,271,6.0,12.0,93,0.03,,,0.71,,2013-04-24 02:55:00,
2013-04-23 22:08:00,38.0,36.0,29.94,North,360,5.0,13.0,93,0.02,,,0.71,,2013-04-24 03:08:00,
2013-04-23 22:17:00,38.0,36.0,29.94,North,360,5.0,13.0,93,0.02,,,0.71,,2013-04-24 03:17:00,
2013-04-23 22:28:00,38.0,36.0,29.95,NNW,347,6.0,12.0,93,0.02,,,0.71,,2013-04-24 03:28:00,
2013-04-23 22:50:00,38.0,36.0,29.95,NE,53,4.0,7.0,93,0.01,,,0.71,,2013-04-24 03:50:00,
2013-04-23 23:03:00,38.0,36.0,29.95,NW,319,3.0,8.0,94,0.00,,,0.71,,2013-04-24 04:03:00,
2013-04-23 23:12:00,38.0,36.0,29.95,NW,319,3.0,8.0,94,0.00,,,0.71,,2013-04-24 04:12:00,
2013-04-23 23:23:00,38.0,36.0,29.96,North,351,5.0,11.0,92,0.00,,,0.71,,2013-04-24 04:23:00,
2013-04-23 23:33:00,37.0,35.0,29.95,NNE,15,3.0,9.0,92,0.00,,,0.71,,2013-04-24 04:33:00,
2013-04-23 23:43:00,37.0,35.0,29.95,NNE,15,3.0,9.0,92,0.00,,,0.71,,2013-04-24 04:43:00,
2013-04-23 23:52:00,37.0,35.0,29.95,NNW,344,2.0,6.0,93,0.00,,,0.71,,2013-04-24 04:52:00,